SKYSAT-C2

Last updated on Mon Sep 07 2026 00:02:46 GMT+0000 (Coordinated Universal Time)

1 41773U 16058D 26249.58722783 .00007729 00000+0 17302-3 0 9997 2 41773 97.0160 268.7042 0005044 104.6042 255.5766 15.43711157557600
UTC large
Height (km)
Speed (km/s)
/
Latitude / Longitude
Inclination (degrees)
Orbital Period (minutes)
Azimuth
Elevation
Range (km)
Doppler Factor

Next 0 passes for location: London (51.5072 / 0.1276)

No passes found over London.
SKYSAT-C2